Location: Cahas Mountain Overlook
(37.0833°N, 80.1000°W)
Time: 18:45:40
(UTC-04:00)

Tiros 1 - Pass Details

Date: 14 February 2026
Orbit: 618 x 649 km, 48.4° (Epoch: 13 March)

Event Time Altitude Azimuth Distance (km) Brightness Sun altitude
Rises 15:14:52 0° 307° (NW) 2,886 10.6 27.5°
Reaches altitude 10° 15:17:17 10° 315° (NW) 1,978 9.7 27.2°
Maximum altitude 15:21:35 41° 26° (NNE) 890 7.7 26.5°
Drops below altitude 10° 15:25:54 10° 98° (E) 1,976 9.4 25.9°
Sets 15:28:19 0° 105° (ESE) 2,883 10.2 25.6°
